{"data":{"norad_id":60430,"intl_designator":"2024-144F","name":"STARLINK-32196","alt_names":[],"object_type":"PAYLOAD","status":"ACTIVE","operator":null,"country":"US","launch_date":"2024-08-12","launch_site_code":"AFETR","launch_vehicle":null,"mission":null,"orbit_class":"UNKNOWN","rcs_meters":null,"size_class":null,"mass_kg":null,"dimensions":null,"purposes":["comms"],"wikipedia_slug":null,"has_3d_model":false,"image_url":null,"decayed_at":null,"tle_current":{"epoch":"2026-05-25T04:38:03.732000Z","epoch_age_seconds":55465,"freshness":"FRESH","line1":"1 60430U 24144F   26145.19309875  .00000719  00000+0  32413-4 0  9991","line2":"2 60430  53.1608 220.9694 0000999 100.1009 260.0106 15.34386747101036","mean_motion":15.34386747,"eccentricity":9.99e-5,"inclination_deg":53.1608,"raan_deg":220.9694,"arg_perigee_deg":100.1009,"mean_anomaly_deg":260.0106,"bstar":3.2413e-5,"rev_number":10103,"period_min":93.848568675105,"perigee_km":462.05922732442,"apogee_km":463.42603507473,"semimajor_km":6840.8796311996,"source":"CELESTRAK","updated_at":"2026-05-25T13:38:19.273421Z"}}}